Tracking 28096 objects as of 29-Sep-2023
HD Live streaming from Space Station
objects crossing your sky now

NANOSAT C BR2

Track NANOSAT C BR2 now!
10-day predictions
NANOSAT C BR2 is classified as:


NORAD ID: 47950
Int'l Code: 2021-022U
Perigee: 507.2 km
Apogee: 529.0 km
Inclination: 97.5 °
Period: 94.8 minutes
Semi major axis: 6889 km
RCS: Unknown
Launch date: March 22, 2021
Source: (TBD)
Launch site: TYURATAM MISSILE AND SPACE COMPLEX (TTMTR)

Uplink (MHz):
Downlink (MHz): 145.865
Beacon (MHz):
Mode: 1k2/2k4/4k8/9k6BPSK
Call sign: NCBR2
Status: Active

Your satellite tracking list
Your tracking list is empty




NASA's NSSDC Master Catalog

Two Line Element Set (TLE):
1 47950U 21022U   23271.91762616  .00019571  00000-0  95302-3 0  9990
2 47950  97.4800 168.3053 0015820 342.5025  17.5662 15.18293442138792
Source of the keplerian elements: AFSPC